Location: Newark
(58.9986°N, 38.5006°E)
Time: 09:37:58
(UTC+00:00)

Vanguard 1 - Visible Passes

Search period start: 19 April 2021 00:00
Search period end: 29 April 2021 00:00
Orbit: 648 x 3834 km, 34.3° (Epoch: 18 April)

Date Brightness Start Highest point End Pass type
(mag) Time Alt. Az. Time Alt. Az. Time Alt. Az.
19 Apr 14.0 19:06:05 10° WSW 19:09:44 11° SW 19:13:19 10° SW visible
21 Apr 14.0 17:17:12 10° WSW 17:30:01 19° SW 17:42:47 10° S visible
22 Apr 14.1 17:39:53 10° WSW 17:49:53 15° SW 17:59:51 10° SSW visible
23 Apr 14.2 18:05:22 10° WSW 18:09:37 11° SW 18:13:53 10° SW visible
